Tracking 19415 objects as of 15-Dec-2018
HD Live streaming from Space Station
objects crossing your sky now

BEIDOU 3M11

Track BEIDOU 3M11 now!
BEIDOU 3M11 is classified as:


NORAD ID: 43602
Int'l Code: 2018-067A
Perigee: 21,518.3 km
Apogee: 21,552.0 km
Inclination: 55.0 °
Period: 773.2 minutes
Semi major axis: 27906 km
RCS: Unknown
Launch date: August 24, 2018
Source: People's Republic of China (PRC)
Launch site: Xichang Space Center, China (XSC)
aabbcc
Your satellite tracking list
Your tracking list is empty




NASA's NSSDC Master Catalog

Two Line Element Set (TLE):
1 43602U 18067A   18348.62494008 -.00000037  00000-0  00000+0 0  9994
2 43602  54.9601 274.5717 0006025 334.1011 285.7397  1.86231414  2060
Source of the keplerian elements: AFSPC